TimeHST,TemperatureF,Dew PointF,Humidity,Sea Level PressureIn,VisibilityMPH,Wind Direction,Wind SpeedMPH,Gust SpeedMPH,PrecipitationIn,Events,Conditions,WindDirDegrees,DateUTC
12:53 AM,70.0,59.0,68,29.96,10.0,ESE,6.9,-,N/A,,Clear,110,2014-01-10 10:53:00
1:53 AM,70.0,59.0,68,29.95,10.0,ESE,6.9,-,N/A,,Clear,110,2014-01-10 11:53:00
2:53 AM,68.0,60.1,76,29.94,10.0,NE,4.6,-,N/A,,Clear,40,2014-01-10 12:53:00
3:53 AM,68.0,60.1,76,29.93,10.0,ENE,5.8,-,N/A,,Clear,70,2014-01-10 13:53:00
4:53 AM,66.9,59.0,76,29.94,10.0,NE,6.9,-,N/A,,Clear,40,2014-01-10 14:53:00
5:53 AM,66.9,57.9,73,29.95,10.0,NE,5.8,-,N/A,,Clear,50,2014-01-10 15:53:00
6:53 AM,66.9,57.9,73,29.96,10.0,NE,6.9,-,N/A,,Clear,40,2014-01-10 16:53:00
7:53 AM,70.0,59.0,68,29.98,10.0,NE,6.9,-,N/A,,Clear,40,2014-01-10 17:53:00
8:53 AM,77.0,59.0,54,29.99,10.0,North,6.9,-,N/A,,Clear,350,2014-01-10 18:53:00
9:53 AM,79.0,60.1,52,29.99,10.0,North,11.5,-,N/A,,Clear,360,2014-01-10 19:53:00
10:53 AM,81.0,61.0,50,29.95,10.0,North,11.5,-,N/A,,Clear,350,2014-01-10 20:53:00
11:53 AM,81.0,64.9,58,29.93,10.0,NW,13.8,-,N/A,,Clear,320,2014-01-10 21:53:00
12:53 PM,82.0,64.9,56,29.89,10.0,NNW,12.7,-,N/A,,Clear,330,2014-01-10 22:53:00
1:53 PM,82.0,66.0,58,29.86,10.0,NW,15.0,-,N/A,,Clear,320,2014-01-10 23:53:00
2:53 PM,82.0,66.9,60,29.85,10.0,NNW,12.7,-,N/A,,Clear,330,2014-01-11 00:53:00
3:53 PM,81.0,66.0,60,29.85,10.0,West,5.8,-,N/A,,Clear,270,2014-01-11 01:53:00
4:53 PM,79.0,62.1,56,29.86,10.0,SSW,8.1,-,N/A,,Clear,200,2014-01-11 02:53:00
5:53 PM,78.1,64.0,62,29.88,10.0,South,10.4,-,N/A,,Clear,170,2014-01-11 03:53:00
6:53 PM,77.0,64.0,64,29.89,10.0,SSE,10.4,-,N/A,,Clear,150,2014-01-11 04:53:00
7:53 PM,75.0,61.0,62,29.91,10.0,ESE,6.9,-,N/A,,Clear,110,2014-01-11 05:53:00
8:53 PM,73.9,60.1,62,29.94,10.0,ESE,5.8,-,N/A,,Clear,110,2014-01-11 06:53:00
9:53 PM,73.9,60.1,62,29.94,10.0,ESE,6.9,-,N/A,,Clear,120,2014-01-11 07:53:00
10:53 PM,73.0,60.1,64,29.94,10.0,ESE,5.8,-,N/A,,Clear,110,2014-01-11 08:53:00
11:53 PM,72.0,61.0,68,29.93,10.0,East,3.5,-,N/A,,Clear,100,2014-01-11 09:53:00